SCP
0 0 0 0 0 0 0 0 0 0 0 0 0 0 0 0 0 0 0 0 0 0 0 0 0 0 0 0 0 0 0 0 0 0 0 0 0 0 0 0 0 0 0
0 0 0 0 0 0 0 0 0 0 0 0 0 0 0 0 0 0 0 0 0 0 0 0 0 0 0 0 0 0 0 0 0 0 0 0 0 0 0 0 0 0 0
0 0 0 0 0 0 0 0 0 0 0 0 0 0 0 0 0 0 0 0 0 0 0 0 0 0 0 0 0 0 0 0 0 0 0 0 0 0 0 0 0 0 0
0 0 0 0 0 0 0 0 0 0 0 0 0 0 0 0 0 0 0 0 0 0 0 0 0 0 0 0 0 0 0 0 0 0 0 0 0 0 0 0 0 0 0
0 0 0 0 0 0 0 0 0 0 0 0 0 0 0 0 0 0 0 0 0 0 0 0 0 0 0 0 0 0 0 0 0 0 0 0 0 0 0 0 0 0 0
0 0 0 0 0 0 0 0 0 0 0 0 0 0 0 0 0 0 0 0 0 0 0 0 0 0 0 0 0 0 0 0 0 0 0 0 0 0 0 0 0 0 0
0 0 0 0 0 0 0 0 0 0 0 0 0 0 0 0 0 0 0 0 0 0 0 0 0 0 0 0 0 0 0 0 0 0 0 0 0 0 0 0 0 0 0
0 0 0 0 0 0 0 0 0 0 0 0 0 0 0 0 0 0 0 0 0 0 0 0 0 0 0 0 0 0 0 0 0 0 0 0 0 0 0 0 0 0 0
0 0 0 0 0 0 0 0 0 0 0 0 0 0 0 0 0 0 0 0 0 0 0 0 0 0 0 0 0 0 0 0 0 0 0 0 0 0 0 0 0 0 0
0 0 0 0 0 0 0 0 0 0 0 0 0 0 0 0 0 0 0 0 0 0 0 0 0 0 0 0 0 0 0 0 0 0 0 0 0 0 0 0 0 0 0
0 0 0 0 0 0 0 0 0 0 0 0 0 0 0 0 0 0 0 0 0 0 0 0 0 0 0 0 0 0 0 0 0 0 0 0 0 0 0 0 0 0 0
0 0 0 0 0 0 0 0 0 0 0 0 0 0 0 0 0 0 0 0 0 0 0 0 0 0 0 0 0 0 0 0 0 0 0 0 0 0 0 0 0 0 0
0 0 0 0 0 0 0 0 0 0 0 0 0 0 0 0 0 0 0 0 0 0 0 0 0 0 0 0 0 0 0 0 0 0 0 0 0 0 0 0 0 0 0
0 0 0 0 0 0 0 0 0 0 0 0 0 0 0 0 0 0 0 0 0 0 0 0 0 0 0 0 0 0 0 0 0 0 0 0 0 0 0 0 0 0 0
0 0 0 0 0 0 0 0 0 0 0 0 0 0 0 0 0 0 0 0 0 0 0 0 0 0 0 0 0 0 0 0 0 0 0 0 0 0 0 0 0 0 0
0 0 0 0 0 0 0 0 0 0 0 0 0 0 0 0 0 0 0 0 0 0 0 0 0 0 0 0 0 0 0 0 0 0 0 0 0 0 0 0 0 0 0
0 0 0 0 0 0 0 0 0 0 0 0 0 0 0 0 0 0 0 0 0 0 0 0 0 0 0 0 0 0 0 0 0 0 0 0 0 0 0 0 0 0 0
0 0 0 0 0 0 0 0 0 0 0 0 0 0 0 0 0 0 0 0 0 0 0 0 0 0 0 0 0 0 0 0 0 0 0 0 0 0 0 0 0 0 0
0 0 0 0 0 0 0 0 0 0 0 0 0 0 0 0 0 0 0 0 0 0 0 0 0 0 0 0 0 0 0 0 0 0 0 0 0 0 0 0 0 0 0
0 0 0 0 0 0 0 0 0 0 0 0 0 0 0 0 0 0 0 0 0 0 0 0 0 0 0 0 0 0 0 0 0 0 0 0 0 0 0 0 0 0 0
0 0 0 0 0 0 0 0 0 0 0 0 0 0 0 0 0 0 0 0 0 0 0 0 0 0 0 0 0 0 0 0 0 0 0 0 0 0 0 0 0 0 0
0 0 0 0 0 0 0 0 0 0 0 0 0 0 0 0 0 0 0 0 0 0 0 0 0 0 -0 -0 -0 0 0 0 0 0 0 0 0 0 0 0 0 0 0
0 0 0 0 0 0 0 0 0 0 0 0 0 0 0 0 0 0 0 0 0 0 0 0 0 0 -0 -0 -0 0 0 0 0 0 0 0 0 0 0 0 0 0 0
0 0 0 0 0 0 0 0 0 0 0 0 0 0 0 0 0 0 0 0 0 0 0 0 0 -0 -0 -0 -0 0 0 0 0 0 0 0 0 0 0 0 0 0 0
0 0 0 0 0 0 0 0 0 0 0 0 0 0 0 0 0 0 0 0 0 0 0 0 -0 -0 -0 -0 -0 0 0 0 0 0 0 0 0 0 0 0 0 0 0
0 0 0 0 0 0 0 0 0 0 0 0 0 0 0 0 0 0 0 0 0 0 0 0 -0 -0 -0 -0 -0 0 0 0 0 0 0 0 0 0 0 0 0 0 0
Wind_Speed
2 4 5 5 5 6 7 9 10 10 11 11 12 12 12 12 13 13 13 14 14 14 14 15 15 15 14 14 14 13 13 13 13 13 13 13 12 13 13 12 11 8 13
2 4 3 3 5 6 7 9 10 10 11 11 12 12 12 12 13 13 13 14 14 14 14 14 15 15 14 14 14 13 13 13 12 12 12 10 11 12 12 12 11 8 12
2 3 2 3 5 6 7 9 10 10 11 11 11 12 12 12 12 13 13 13 14 14 14 14 14 14 14 14 14 13 13 12 12 12 10 6 6 11 11 11 11 11 11
2 2 2 4 6 7 8 9 9 10 11 11 11 12 12 12 12 13 13 13 13 13 13 14 14 14 14 14 13 13 13 13 12 11 7 6 5 9 11 10 10 10 11
3 3 3 6 6 7 8 8 10 10 11 11 11 12 12 12 12 12 13 13 12 12 13 13 13 13 13 13 13 13 13 13 12 9 6 5 5 8 10 9 9 9 10
4 4 3 7 7 7 8 9 10 10 11 11 11 11 12 12 12 12 12 12 12 12 12 13 13 13 13 13 13 13 13 13 10 6 6 5 4 7 9 9 8 8 9
4 4 4 7 8 9 9 10 10 10 11 11 11 11 12 12 12 12 12 12 12 12 12 12 12 12 12 13 13 13 13 13 8 6 5 5 6 9 8 8 8 8 8
4 5 5 7 8 9 10 11 11 11 11 11 11 12 12 12 12 12 12 12 12 12 12 12 12 12 12 13 13 13 13 12 8 6 5 5 8 9 9 8 8 8 8
5 5 5 5 6 9 10 11 11 11 11 11 11 12 12 12 12 12 12 12 12 12 12 12 12 13 13 12 13 13 13 12 7 5 5 4 8 9 9 9 8 8 8
5 5 5 6 6 6 6 9 11 11 11 11 11 12 12 12 12 12 11 12 12 12 12 12 12 13 13 12 12 12 12 10 6 5 4 5 8 8 8 8 8 7 7
4 4 5 5 5 5 5 7 8 9 10 10 9 11 10 6 6 7 10 12 12 12 12 12 12 12 12 11 12 12 9 4 5 4 4 7 8 7 7 7 7 7 6
3 3 3 4 4 4 4 4 4 4 5 6 5 6 5 5 5 7 10 12 12 12 12 12 12 11 9 5 8 9 4 5 4 3 4 9 8 7 7 7 7 6 5
3 3 3 3 4 4 3 3 3 3 3 4 5 5 4 4 4 4 4 6 6 8 6 7 7 5 5 4 4 4 4 4 3 3 5 9 9 8 7 7 6 6 5
3 3 3 3 4 3 3 3 3 3 3 3 4 5 4 3 3 3 3 4 4 3 4 4 4 5 5 5 5 5 5 3 3 3 4 9 9 8 7 7 6 5 5
4 3 2 3 3 3 3 3 3 3 3 3 3 4 4 3 3 3 3 3 4 3 4 4 4 5 5 5 5 5 4 4 4 3 3 8 9 8 8 7 6 6 5
4 3 3 3 3 4 3 3 3 3 3 3 3 3 4 3 3 3 3 3 4 3 3 3 3 3 3 3 4 5 4 3 3 3 3 4 8 9 9 8 7 6 6
4 4 4 4 4 4 4 4 3 3 3 3 3 3 4 3 3 2 2 3 3 3 3 3 3 3 3 4 4 4 4 3 3 3 3 3 3 7 9 9 9 8 8
4 4 4 4 4 4 4 3 3 3 3 3 2 3 3 3 3 3 2 3 3 2 3 3 3 3 3 3 3 3 3 3 3 2 2 3 3 3 6 10 10 9 8
5 4 4 4 4 3 4 3 3 3 3 2 2 3 3 3 3 2 2 2 3 2 3 3 3 2 2 3 3 3 3 3 2 2 2 3 3 3 3 7 10 10 10
4 4 4 4 4 3 3 3 3 3 3 2 2 2 3 2 3 3 2 3 3 2 3 3 3 3 2 3 3 3 3 2 1 1 2 2 3 4 4 4 4 6 10
4 4 4 4 4 3 2 2 2 1 1 2 2 2 3 3 3 2 2 2 2 2 2 2 2 2 3 3 2 3 3 2 1 1 2 2 3 3 4 4 3 3 4
5 5 4 4 4 3 2 2 1 2 1 1 1 2 2 2 3 2 2 2 2 2 2 3 2 2 2 2 2 2 3 2 2 2 2 2 2 3 4 5 4 4 4
5 5 5 4 4 3 3 3 2 2 1 1 1 1 2 2 2 2 2 1 1 1 1 2 2 1 1 2 1 1 1 2 3 2 1 2 2 2 3 3 4 4 5
6 5 4 4 4 4 4 4 4 2 1 1 0 0 1 2 2 2 2 1 1 1 1 1 2 1 0 1 1 0 1 1 2 3 2 2 3 3 3 3 4 4 4
5 5 5 4 4 4 4 4 4 2 1 1 0 1 1 1 1 2 2 1 1 1 2 1 2 2 1 1 1 1 1 1 1 2 4 4 3 2 2 3 3 3 4
5 4 4 5 4 4 4 4 4 3 2 1 0 0 1 1 1 1 2 1 1 1 2 2 1 2 1 1 1 1 1 1 1 2 4 5 5 4 4 3 2 3 3
Wind_Direction
306 313 317 3 26 46 60 65 66 64 62 62 63 62 61 61 60 57 57 58 59 57 55 53 53 55 56 57 56 56 56 58 59 59 59 60 64 69 71 70 71 72 81
287 306 326 17 41 53 64 69 70 68 65 63 63 63 61 60 60 59 58 57 57 57 56 54 51 52 53 54 55 55 57 58 57 56 54 53 57 66 69 68 69 71 77
354 325 342 41 52 62 68 72 71 71 68 65 64 63 61 60 59 59 59 57 56 55 55 53 51 50 50 51 53 54 58 58 55 53 49 44 51 65 68 67 69 72 74
17 352 13 61 67 73 71 73 73 72 69 66 64 63 62 61 60 58 57 56 56 55 54 52 51 51 50 49 52 54 54 54 53 51 44 39 41 60 63 64 67 71 73
33 14 23 66 75 80 77 75 75 71 68 66 65 64 62 60 59 58 57 55 56 56 55 53 51 52 50 48 50 52 51 49 49 45 39 35 37 56 61 63 65 68 72
41 22 27 66 72 76 79 77 74 72 69 66 64 63 61 60 58 57 56 54 54 53 54 53 52 52 50 48 48 50 49 47 44 38 33 30 32 51 59 61 64 69 71
52 31 34 71 71 72 75 77 74 71 68 65 62 61 59 59 56 54 54 53 52 51 51 51 50 49 49 48 46 46 45 45 43 35 30 27 33 47 55 60 64 68 71
65 47 41 65 71 71 70 69 70 68 66 63 61 58 56 56 55 52 51 50 50 51 51 49 46 46 46 46 44 44 41 39 39 33 26 26 32 41 47 51 57 64 68
63 56 45 40 52 63 67 65 65 66 65 63 60 58 54 52 52 50 47 47 47 48 48 46 45 44 42 41 42 41 39 36 36 29 25 21 29 37 42 45 49 59 63
65 58 51 47 47 46 49 62 61 61 61 60 58 56 52 47 45 46 42 42 44 44 43 43 42 41 39 36 37 37 34 32 26 22 15 15 26 33 40 43 44 50 58
64 53 55 54 50 47 51 56 54 56 57 55 50 52 48 36 33 35 36 41 42 42 42 41 40 38 36 33 32 32 32 23 15 15 7 13 22 30 35 38 41 44 51
91 64 61 64 61 54 57 54 47 48 50 49 45 42 40 36 35 39 36 37 38 38 38 38 37 34 31 22 23 26 22 15 19 8 7 14 18 22 28 30 32 36 45
125 90 71 75 72 70 65 62 53 47 49 47 46 41 39 40 36 34 30 26 24 30 29 28 28 25 24 20 17 18 14 15 11 359 360 11 14 15 18 22 21 24 33
119 105 80 82 80 76 77 72 66 55 50 47 43 41 42 40 34 29 31 22 22 19 21 23 22 21 21 18 16 17 13 9 4 353 354 7 11 10 11 15 16 16 21
129 120 100 95 90 81 78 72 69 59 56 51 48 42 44 49 39 29 27 27 23 20 23 20 18 18 16 13 14 13 5 359 359 355 351 5 10 10 9 11 13 14 16
152 141 119 102 96 90 82 77 72 64 56 53 51 45 44 46 45 35 29 25 20 15 15 19 13 10 8 8 8 1 350 349 354 354 356 2 13 16 12 11 11 14 14
158 143 134 122 102 96 90 83 77 70 63 53 43 41 43 42 43 42 34 24 11 6 9 15 18 10 11 11 2 350 343 346 349 355 2 4 7 17 19 15 12 13 14
145 140 139 127 112 103 97 91 83 77 70 58 43 37 38 38 40 46 38 19 1 9 15 15 19 11 5 0 349 338 333 331 343 357 10 15 18 16 17 18 13 8 7
150 142 134 121 117 112 102 94 85 79 69 59 46 38 28 32 34 46 41 14 6 19 22 14 11 3 355 351 336 333 328 323 327 358 16 24 25 19 13 14 14 7 2
145 138 133 125 118 111 99 89 79 70 61 56 51 39 27 26 33 37 40 18 17 24 22 15 2 6 355 341 333 333 319 309 330 31 24 25 26 22 16 15 12 5 2
139 138 141 132 126 119 109 113 109 88 65 50 44 42 36 30 31 41 31 20 18 24 14 11 5 5 5 357 357 339 324 319 36 41 26 28 28 21 19 13 8 5 349
160 160 156 151 141 138 135 134 134 127 108 87 52 45 35 34 28 38 34 17 8 16 18 15 21 6 358 13 13 348 335 338 11 6 6 23 20 15 12 1 359 358 344
174 175 172 165 151 146 133 111 90 81 73 58 33 24 14 28 28 22 22 12 1 20 10 356 8 20 356 353 22 36 343 316 320 311 350 11 12 2 351 344 344 342 338
184 174 170 169 157 148 142 141 142 146 155 195 210 320 2 26 15 12 10 2 352 359 353 339 5 325 320 323 332 352 260 268 295 312 318 345 349 336 328 332 329 325 324
174 169 169 165 158 153 152 156 153 151 158 142 113 49 14 10 4 5 355 360 343 338 336 336 337 330 299 258 278 291 286 287 251 264 293 314 322 312 312 309 304 312 317
163 164 162 164 160 157 157 160 164 164 156 141 120 24 353 345 342 356 353 346 331 324 315 309 303 307 304 276 265 263 257 256 261 265 283 299 303 303 301 290 297 302 307